Regional Weather Roundup
Issued by NWS

Home | Current Version | Previous Version | Graphics & Text | Print | Product List | Glossary On
Versions: 1 2 3 4 5 6 7 8 9 10 11 12 13 14 15 16 17 18 19 20 21 22 23 24 25 26 27 28 29 30 31 32 33 34 35 36 37 38 39 40 41 42 43 44 45 46 47 48 49 50
000
ASUS43 KIND 241959
RWRIN

WEATHER ROUNDUP FOR INDIANA
NATIONAL WEATHER SERVICE INDIANAPOLIS IN
300 PM EST FRI FEB 24 2017

NOTE: "FAIR" INDICATES FEW OR NO CLOUDS BELOW 12,000 FEET WITH NO
SIGNIFICANT WEATHER AND/OR OBSTRUCTIONS TO VISIBILITY.

* - STATION DOES NOT REPORT WEATHER SUCH AS PRECIPITATION OR FOG.

+ - STATION NOT QUALITY CONTROLLED BY THE NATIONAL WEATHER SERVICE.
    USE DATA WITH CAUTION...ESPECIALLY DEWPOINT AND RELATIVE
    HUMIDITY OBSERVATIONS.

INZ001>003-010>013-019-020-242100-
NORTHWEST INDIANA

CITY           SKY/WX    TMP DP  RH WIND       PRES   REMARKS
GARY /AIRPORT/ CLOUDY    39  39 100 NW8       29.45S FOG
KNOX *+        CLOUDY    63  36  36 SW10G18   29.43F
MICHIGAN CITY+ CLOUDY    45  45 100 W3        29.44S
RENSSELAER +   CLOUDY    64  55  72 SW12      29.44S
VALPARAISO     CLOUDY    56  51  84 W6        29.43S

$$

LMZ046-743>745-242100-
SOUTHERN LAKE MICHIGAN

STATION/POSITION TIME  TEMP    WIND        PRES    WAVE
                       AIR SEA DIR/SP/G            HT
                 (UTC) (F)     (DEG/KT/KT) (MB)    (FT)
BURNS HARBOR     1940   37     250/  6/  8  997.6F
MICHIGAN CITY    1930   37     200/  7/  8   N/A

$$

INZ004-005-014>016-021>024-242100-
NORTH CENTRAL INDIANA

CITY           SKY/WX    TMP DP  RH WIND       PRES   REMARKS
ELKHART        CLOUDY    63  55  77 S9        29.43F
GOSHEN         CLOUDY    64  54  69 S13       29.44F
SOUTH BEND     LGT RAIN  61  56  83 S13       29.44S

$$

INZ006>009-017-018-025>027-242100-
NORTHEAST INDIANA

CITY           SKY/WX    TMP DP  RH WIND       PRES   REMARKS
ANGOLA *+      CLOUDY    64  55  72 SW8       29.47R
FORT WAYNE     CLOUDY    67  54  63 SW16      29.50S
KENDALLVILLE + CLOUDY    64  57  78 SW9       29.47R

$$

INZ028-029-035-036-043>045-051>053-242100-
WEST CENTRAL INDIANA

CITY           SKY/WX    TMP DP  RH WIND       PRES   REMARKS
LAFAYETTE      CLOUDY    66  55  67 SW14G30   29.46S
TERRE HAUTE    CLOUDY    66  53  63 SW16G22   29.51S

$$

INZ030>032-037>040-046>048-054>057-064-065-242100-
CENTRAL INDIANA

CITY           SKY/WX    TMP DP  RH WIND       PRES   REMARKS
GREENWOOD *+   CLOUDY    71  53  52 SW8       29.53S
INDIANAPOLIS   TSTM      66  54  65 S25G32    29.46F
-EAGLE CREEK   TSTM      67  54  63 S10G23    29.46F
KOKOMO +       CLOUDY    66  55  67 SW20G28   29.49F
MT COMFORT *+  CLOUDY    70  52  52 SW15      29.53S
SHELBYVILLE    CLOUDY    73  50  44 SW20      29.53R

$$

INZ033-034-041-042-049-050-058-059-242100-
EAST CENTRAL INDIANA

CITY           SKY/WX    TMP DP  RH WIND       PRES   REMARKS
MUNCIE         CLOUDY    72  49  44 W10G21    29.52S

$$

INZ060-061-067>069-081>083-085>088-242100-
SOUTHWEST INDIANA

CITY           SKY/WX    TMP DP  RH WIND       PRES   REMARKS
EVANSVILLE     PTSUNNY   76  48  37 SW24      29.54S
HUNTINGBURG *+ MOSUNNY   77  52  41 SW18G24   29.54S

$$

INZ062-063-066-070>080-084-089>092-242100-
SOUTH CENTRAL AND SOUTHEAST INDIANA

CITY           SKY/WX    TMP DP  RH WIND       PRES   REMARKS
BLOOMINGTON    TSTM      71  49  45 SW16      29.53S
MADISON *+     MOSUNNY   75  48  38 S17G28    29.58S
SEYMOUR +      CLOUDY    75  54  46 S14G30    29.53F

$$





USA.gov is the U.S. government's official web portal to all federal, state and local government web resources and services.